Weather History for KONL - August, 2013

Change the Weather History Date:

Sunday, August 18, 2013

  Actual Average Record
Temperature  
Mean Temperature 70 °F -  
Max Temperature 78 °F 86 °F 103 °F (1983)
Min Temperature 61 °F 61 °F 46 °F (2002)
Cooling Degree Days 4    
Growing Degree Days 20 (Base 50)    
Moisture  
Dew Point 61 °F    
Average Humidity 72    
Maximum Humidity 81    
Minimum Humidity 61    
Precipitation  
Precipitation 0.00 in - - ()
Sea Level Pressure  
Sea Level Pressure 30.06 in    
Wind  
Wind Speed 11 mph (South)    
Max Wind Speed 20 mph    
Max Gust Speed 24 mph    
Visibility 10 miles    
Events      
Averages and records for this station are not official NWS values.
T = Trace of Precipitation, MM = Missing Value Source: NWS Daily Summary

Daily Weather History Graph

Daily Weather History Graph

Search for Another Location

Airport or City:

Trip Planner

Search our weather history database for the weather conditions in past years. The results will help you decide how hot, cold, wet, or windy it might be!

Date:

Astronomy

Aug. 18, 2013 Rise Set
Actual Time 6:45 AM CDT 8:31 PM CDT
Civil Twilight 6:15 AM CDT 9:01 PM CDT
Nautical Twilight 5:38 AM CDT 9:37 PM CDT
Astronomical Twilight 4:59 AM CDT 10:16 PM CDT
Moon 6:39 PM CDT (8/18) 3:54 AM CDT (8/18)
Length of Visible Light 14h 45m
Length of Day
13h 45m
Waxing Gibbous, 92% of the Moon is Illuminated
Aug 18
Waxing Gibbous
Aug 20
Full
Aug 28
Last Quarter
Sep 5
New
Sep 12
First Quarter

Hourly Weather History & Observations

Time (CDT) Temp. Dew Point Humidity Pressure Visibility Wind Dir Wind Speed Gust Speed Precip Events Conditions
12:15 AM 65.5 °F 59.5 °F 81% 30.10 in 10.0 mi SSE 9.2 mph 16.1 mph N/A   Clear
12:35 AM 65.3 °F 59.2 °F 81% 30.10 in 10.0 mi SSE 9.2 mph - N/A   Scattered Clouds
12:55 AM 64.9 °F 58.5 °F 79% 30.10 in 10.0 mi South 10.4 mph - N/A   Scattered Clouds
1:15 AM 65.3 °F 58.1 °F 77% 30.10 in 10.0 mi South 11.5 mph - N/A   Scattered Clouds
1:35 AM 65.1 °F 57.7 °F 77% 30.10 in 10.0 mi South 10.4 mph - N/A   Scattered Clouds
1:55 AM 64.8 °F 57.6 °F 77% 30.10 in 10.0 mi South 9.2 mph - N/A   Clear
2:15 AM 64.8 °F 57.6 °F 77% 30.10 in 10.0 mi South 11.5 mph - N/A   Scattered Clouds
2:35 AM 64.4 °F 57.4 °F 78% 30.10 in 10.0 mi SSE 10.4 mph - N/A   Scattered Clouds
2:55 AM 63.5 °F 57.4 °F 80% 30.09 in 10.0 mi SSE 10.4 mph - N/A   Clear
3:15 AM 63.5 °F 57.2 °F 80% 30.09 in 10.0 mi SSE 10.4 mph - N/A   Clear
3:35 AM 63.1 °F 57.0 °F 80% 30.09 in 10.0 mi South 11.5 mph - N/A   Scattered Clouds
3:55 AM 62.8 °F 56.7 °F 80% 30.08 in 10.0 mi South 10.4 mph - N/A   Scattered Clouds
4:15 AM 62.6 °F 56.5 °F 80% 30.08 in 10.0 mi South 10.4 mph - N/A   Clear
4:35 AM 62.6 °F 56.5 °F 80% 30.08 in 10.0 mi South 10.4 mph - N/A   Clear
4:55 AM 62.6 °F 56.3 °F 80% 30.07 in 10.0 mi SSE 9.2 mph - N/A   Clear
5:15 AM 62.2 °F 56.1 °F 80% 30.07 in 10.0 mi SSE 10.4 mph - N/A   Clear
5:35 AM 62.1 °F 55.9 °F 80% 30.07 in 10.0 mi SSE 8.1 mph - N/A   Clear
5:55 AM 61.9 °F 55.9 °F 81% 30.07 in 10.0 mi South 8.1 mph - N/A   Clear
6:15 AM 61.9 °F 55.8 °F 80% 30.07 in 10.0 mi South 9.2 mph - N/A   Clear
6:35 AM 61.9 °F 55.8 °F 80% 30.07 in 10.0 mi South 9.2 mph - N/A   Clear
6:55 AM 62.1 °F 55.8 °F 80% 30.08 in 10.0 mi South 9.2 mph - N/A   Clear
7:15 AM 62.1 °F 55.8 °F 80% 30.08 in 10.0 mi South 9.2 mph - N/A   Clear
7:35 AM 62.6 °F 55.9 °F 79% 30.08 in 10.0 mi South 9.2 mph - N/A   Clear
7:55 AM 63.3 °F 56.3 °F 78% 30.08 in 10.0 mi South 10.4 mph - N/A   Clear
8:15 AM 64.4 °F 56.8 °F 76% 30.08 in 10.0 mi South 10.4 mph - N/A   Clear
8:35 AM 65.7 °F 57.2 °F 74% 30.09 in 10.0 mi South 9.2 mph 16.1 mph N/A   Clear
8:55 AM 67.1 °F 58.1 °F 73% 30.09 in 10.0 mi South 11.5 mph - N/A   Scattered Clouds
9:15 AM 68.0 °F 58.3 °F 71% 30.09 in 10.0 mi South 15.0 mph 20.7 mph N/A   Clear
9:35 AM 69.4 °F 59.4 °F 70% 30.08 in 10.0 mi South 11.5 mph 19.6 mph N/A   Clear
9:55 AM 70.0 °F 59.7 °F 70% 30.09 in 10.0 mi South 16.1 mph 20.7 mph N/A   Clear
10:15 AM 70.9 °F 60.1 °F 69% 30.09 in 10.0 mi South 16.1 mph - N/A   Clear
10:35 AM 71.6 °F 60.4 °F 68% 30.08 in 10.0 mi South 13.8 mph - N/A   Scattered Clouds
10:55 AM 72.7 °F 61.2 °F 67% 30.07 in 10.0 mi South 15.0 mph 23.0 mph N/A   Scattered Clouds
11:15 AM 73.2 °F 61.3 °F 66% 30.07 in 10.0 mi South 16.1 mph - N/A   Scattered Clouds
11:35 AM 74.1 °F 62.4 °F 67% 30.07 in 1.0 mi South 12.7 mph 21.9 mph N/A   Haze
11:55 AM 75.0 °F 62.6 °F 65% 30.07 in 10.0 mi SSW 17.3 mph - N/A   Scattered Clouds
12:15 PM 75.9 °F 62.8 °F 64% 30.06 in 10.0 mi South 16.1 mph 23.0 mph N/A   Scattered Clouds
12:35 PM 76.3 °F 62.8 °F 63% 30.06 in 10.0 mi South 17.3 mph 21.9 mph N/A   Mostly Cloudy
12:55 PM 76.8 °F 62.8 °F 62% 30.07 in 10.0 mi SSW 15.0 mph - N/A   Scattered Clouds
1:15 PM 77.0 °F 62.8 °F 61% 30.07 in 10.0 mi South 15.0 mph 23.0 mph N/A   Scattered Clouds
1:35 PM 77.2 °F 63.3 °F 62% 30.07 in 10.0 mi South 15.0 mph - N/A   Mostly Cloudy
1:55 PM 76.3 °F 63.1 °F 64% 30.07 in 10.0 mi South 13.8 mph - N/A   Overcast
2:15 PM 76.5 °F 63.1 °F 63% 30.06 in 10.0 mi South 16.1 mph 19.6 mph N/A   Overcast
2:35 PM 76.8 °F 63.1 °F 63% 30.05 in 10.0 mi South 15.0 mph - N/A   Overcast
2:55 PM 77.0 °F 63.3 °F 63% 30.05 in 10.0 mi South 16.1 mph 21.9 mph N/A   Overcast
3:15 PM 77.4 °F 63.7 °F 63% 30.04 in 10.0 mi South 15.0 mph 23.0 mph N/A   Overcast
3:35 PM 77.2 °F 63.7 °F 63% 30.04 in 10.0 mi South 15.0 mph 19.6 mph N/A   Overcast
3:55 PM 77.2 °F 63.5 °F 63% 30.03 in 10.0 mi South 19.6 mph 24.2 mph N/A   Overcast
4:15 PM 78.1 °F 63.9 °F 61% 30.03 in 10.0 mi South 13.8 mph 24.2 mph N/A   Mostly Cloudy
4:35 PM 77.7 °F 63.9 °F 62% 30.03 in 10.0 mi South 13.8 mph 21.9 mph N/A   Mostly Cloudy
4:55 PM 77.7 °F 63.9 °F 62% 30.04 in 10.0 mi South 15.0 mph 19.6 mph N/A   Overcast
5:15 PM 77.7 °F 63.3 °F 61% 30.03 in 10.0 mi South 15.0 mph 20.7 mph N/A   Overcast
5:35 PM 77.9 °F 63.5 °F 61% 30.04 in 10.0 mi South 13.8 mph 20.7 mph N/A   Mostly Cloudy
5:55 PM 77.7 °F 63.5 °F 61% 30.04 in 10.0 mi South 11.5 mph - N/A   Overcast
6:15 PM 77.0 °F 63.1 °F 62% 30.04 in 10.0 mi South 10.4 mph - N/A   Overcast
6:35 PM 77.5 °F 63.9 °F 63% 30.04 in 10.0 mi South 9.2 mph - N/A   Overcast
6:55 PM 76.8 °F 63.7 °F 64% 30.04 in 10.0 mi South 11.5 mph - N/A   Overcast
7:15 PM 76.3 °F 64.0 °F 66% 30.04 in 10.0 mi South 10.4 mph - N/A   Mostly Cloudy
7:35 PM 76.1 °F 63.9 °F 66% 30.04 in 10.0 mi South 10.4 mph 16.1 mph N/A   Scattered Clouds
7:55 PM 74.3 °F 64.0 °F 70% 30.04 in 10.0 mi South 9.2 mph - N/A   Clear
8:15 PM 73.4 °F 63.7 °F 71% 30.03 in 10.0 mi South 10.4 mph - N/A   Clear
8:35 PM 72.3 °F 63.7 °F 74% 30.02 in 10.0 mi SSE 9.2 mph - N/A   Clear
8:55 PM 71.6 °F 63.7 °F 76% 30.02 in 10.0 mi South 8.1 mph - N/A   Clear
9:15 PM 70.7 °F 63.5 °F 78% 30.02 in 10.0 mi South 9.2 mph - N/A   Clear
9:35 PM 70.7 °F 63.3 °F 77% 30.02 in 10.0 mi South 11.5 mph - N/A   Clear
9:55 PM 70.2 °F 63.1 °F 78% 30.03 in 10.0 mi South 10.4 mph - N/A   Clear
10:15 PM 69.4 °F 63.0 °F 80% 30.04 in 10.0 mi South 9.2 mph - N/A   Clear
10:35 PM 69.6 °F 62.8 °F 79% 30.04 in 10.0 mi South 9.2 mph - N/A   Clear
10:55 PM 69.3 °F 62.6 °F 79% 30.03 in 10.0 mi South 12.7 mph - N/A   Clear
11:15 PM 69.3 °F 62.1 °F 78% 30.01 in 10.0 mi South 12.7 mph - N/A   Clear
11:35 PM 69.3 °F 61.7 °F 77% 30.02 in 10.0 mi South 11.5 mph - N/A   Clear
11:55 PM 68.9 °F 61.3 °F 77% 30.04 in 10.0 mi SSW 8.1 mph - N/A   Clear